FW6455 Weather Reports


Display with metric or nautical units.
time (UTC)temp
F
wind
direction
speed
MPH
gust
MPH
rain 1hr
in
rain 24hr
in
rain mn
in
humidity
%
barometer
mb
20260905202539 99 75 1.0 5.0 0.00 0.00 0.00 44 1013.1
20260905202040 99 58 1.0 3.0 0.00 0.00 0.00 44 1013.3
20260905201611 99 183 1.0 3.0 0.00 0.00 0.00 44 1013.3
20260905201040 98 182 0.0 3.0 0.00 0.00 0.00 45 1013.3
20260905200537 98 110 1.0 3.0 0.00 0.00 0.00 45 1013.3
20260905200110 98 238 1.0 3.0 0.00 0.00 0.00 45 1013.3
20260905195543 98 100 0.0 3.0 0.00 0.00 0.00 45 1013.3
20260905195040 98 309 0.0 2.0 0.00 0.00 0.00 45 1013.3
20260905194556 98 324 0.0 3.0 0.00 0.00 0.00 45 1013.5
20260905194042 97 232 0.0 3.0 0.00 0.00 0.00 47 1013.6
20260905193539 97 192 1.0 4.0 0.00 0.00 0.00 46 1013.7
20260905193101 97 104 2.0 5.0 0.00 0.00 0.00 46 1013.8
20260905192540 97 52 2.0 5.0 0.00 0.00 0.00 47 1013.8
20260905192040 98 56 1.0 4.0 0.00 0.00 0.00 46 1014.0
20260905191607 98 134 0.0 3.0 0.00 0.00 0.00 46 1014.0
20260905191039 98 94 1.0 3.0 0.00 0.00 0.00 46 1014.1
20260905190541 97 79 0.0 1.0 0.00 0.00 0.00 47 1014.1
20260905190115 96 276 0.0 5.0 0.00 0.00 0.00 47 1014.1
20260905185542 96 0 0.0 5.0 0.00 0.00 0.00 48 1014.3
20260905185039 96 12 1.0 5.0 0.00 0.00 0.00 49 1014.5
20260905184623 96 216 0.0 5.0 0.00 0.00 0.00 48 1014.6
20260905184040 96 106 1.0 4.0 0.00 0.00 0.00 48 1014.8
20260905183544 97 352 2.0 4.0 0.00 0.00 0.00 47 1014.8
20260905183102 98 196 1.0 3.0 0.00 0.00 0.00 46 1014.8
20260905182539 98 309 1.0 3.0 0.00 0.00 0.00 47 1015.0
20260905182040 97 198 1.0 3.0 0.00 0.00 0.00 47 1014.9
20260905181559 97 145 0.0 7.0 0.00 0.00 0.00 47 1015.1
20260905181039 97 126 1.0 7.0 0.00 0.00 0.00 46 1015.2
20260905180539 97 24 0.0 5.0 0.00 0.00 0.00 47 1015.2
20260905180057 97 186 1.0 5.0 0.00 0.00 0.00 47 1015.3
20260905175540 97 197 1.0 4.0 0.00 0.00 0.00 47 1015.3
20260905175039 96 170 0.0 3.0 0.00 0.00 0.00 48 1015.4
20260905174602 96 217 0.0 3.0 0.00 0.00 0.00 49 1015.4
20260905174040 95 197 0.0 2.0 0.00 0.00 0.00 50 1015.4
20260905173540 95 0 0.0 3.0 0.00 0.00 0.00 51 1015.6
20260905173104 95 344 1.0 4.0 0.00 0.00 0.00 51 1015.8
20260905172539 94 195 1.0 4.0 0.00 0.00 0.00 51 1015.7
20260905172040 94 172 1.0 4.0 0.00 0.00 0.00 51 1015.7
20260905171607 94 109 1.0 4.0 0.00 0.00 0.00 52 1015.8
20260905171039 93 141 2.0 4.0 0.00 0.00 0.00 52 1015.9
20260905170542 94 87 1.0 7.0 0.00 0.00 0.00 52 1015.9
20260905170123 94 82 2.0 7.0 0.00 0.00 0.00 53 1015.9
20260905165539 94 0 0.0 2.0 0.00 0.00 0.00 53 1015.9
20260905165041 93 161 0.0 3.0 0.00 0.00 0.00 54 1016.0
20260905164609 93 186 0.0 3.0 0.00 0.00 0.00 55 1015.9
20260905164040 93 91 1.0 5.0 0.00 0.00 0.00 55 1016.0
20260905163539 92 184 1.0 5.0 0.00 0.00 0.00 56 1016.0
20260905163105 92 53 1.0 4.0 0.00 0.00 0.00 55 1016.1
20260905162540 92 359 1.0 4.0 0.00 0.00 0.00 55 1016.1
20260905162039 92 46 1.0 4.0 0.00 0.00 0.00 56 1016.1
20260905161559 92 70 1.0 4.0 0.00 0.00 0.00 55 1016.2
20260905161039 92 190 0.0 3.0 0.00 0.00 0.00 56 1016.2
20260905160539 92 110 1.0 3.0 0.00 0.00 0.00 57 1016.2
20260905160110 92 105 1.0 3.0 0.00 0.00 0.00 58 1016.2
20260905155539 92 115 0.0 2.0 0.00 0.00 0.00 59 1016.2
20260905155038 91 138 0.0 4.0 0.00 0.00 0.00 60 1016.2
20260905154609 91 122 1.0 4.0 0.00 0.00 0.00 61 1016.2
20260905154040 90 106 0.0 2.0 0.00 0.00 0.00 62 1016.2
20260905153539 90 167 0.0 2.0 0.00 0.00 0.00 63 1016.2
20260905153100 90 229 0.0 1.0 0.00 0.00 0.00 63 1016.1
20260905152539 89 0 0.0 2.0 0.00 0.00 0.00 65 1016.2
20260905152040 88 0 0.0 2.0 0.00 0.00 0.00 67 1016.1
20260905151605 87 0 0.0 2.0 0.00 0.00 0.00 68 1016.1
20260905151038 87 262 0.0 2.0 0.00 0.00 0.00 69 1016.0
20260905150540 86 182 0.0 2.0 0.00 0.00 0.00 71 1015.9
20260905150101 86 0 0.0 2.0 0.00 0.00 0.00 72 1015.8
20260905145540 85 188 0.0 2.0 0.00 0.00 0.00 72 1016.0
20260905145039 85 298 0.0 2.0 0.00 0.00 0.00 73 1016.0
20260905144606 84 194 0.0 1.0 0.00 0.00 0.00 74 1016.1
20260905144039 84 0 0.0 1.0 0.00 0.00 0.00 75 1016.1
20260905143537 83 214 0.0 1.0 0.00 0.00 0.00 75 1016.1
20260905143103 83 188 0.0 2.0 0.00 0.00 0.00 75 1016.1
20260905142536 83 0 0.0 2.0 0.00 0.00 0.00 76 1016.1
20260905142040 82 0 0.0 0.0 0.00 0.00 0.00 77 1016.1
20260905141623 82 0 0.0 1.0 0.00 0.00 0.00 77 1016.1
20260905141039 81 0 0.0 1.0 0.00 0.00 0.00 78 1016.2
20260905140539 81 0 0.0 1.0 0.00 0.00 0.00 79 1016.2
20260905140059 80 0 0.0 0.0 0.00 0.00 0.00 80 1016.1
20260905135539 80 0 0.0 0.0 0.00 0.00 0.00 82 1016.1
20260905135041 79 0 0.0 0.0 0.00 0.00 0.00 82 1016.0
20260905134556 78 0 0.0 0.0 0.00 0.00 0.00 82 1016.0
20260905134037 78 0 0.0 0.0 0.00 0.00 0.00 82 1016.0
20260905133539 78 0 0.0 0.0 0.00 0.00 0.00 82 1015.8
20260905133102 78 0 0.0 0.0 0.00 0.00 0.00 81 1015.7
20260905132540 78 0 0.0 0.0 0.00 0.00 0.00 81 1015.7
20260905132039 78 0 0.0 0.0 0.00 0.00 0.00 81 1015.6
20260905131629 79 0 0.0 0.0 0.00 0.00 0.00 80 1015.6
20260905131041 79 0 0.0 0.0 0.00 0.00 0.00 81 1015.6
20260905130540 79 0 0.0 0.0 0.00 0.00 0.00 81 1015.5
20260905125539 78 0 0.0 0.0 0.00 0.00 0.00 82 1015.4
20260905125039 78 0 0.0 0.0 0.00 0.00 0.00 84 1015.5
20260905124557 77 0 0.0 0.0 0.00 0.00 0.00 85 1015.5
20260905124037 76 0 0.0 0.0 0.00 0.00 0.00 86 1015.5
20260905123539 76 0 0.0 0.0 0.00 0.00 0.00 87 1015.5
20260905123111 75 0 0.0 0.0 0.00 0.00 0.00 86 1015.5
20260905122539 75 0 0.0 0.0 0.00 0.00 0.00 86 1015.5
20260905122042 75 0 0.0 0.0 0.00 0.00 0.00 86 1015.4
20260905121601 75 0 0.0 0.0 0.00 0.00 0.00 86 1015.3
20260905121040 75 0 0.0 0.0 0.00 0.00 0.00 86 1015.3
20260905120538 75 0 0.0 0.0 0.00 0.00 0.00 85 1015.2
20260905120100 75 0 0.0 0.0 0.00 0.00 0.00 85 1015.1
20260905115539 75 0 0.0 0.0 0.00 0.00 0.00 85 1015.1
20260905115039 75 0 0.0 0.0 0.00 0.00 0.00 85 1015.2
20260905114606 75 0 0.0 0.0 0.00 0.00 0.00 85 1015.1
20260905114039 76 0 0.0 0.0 0.00 0.00 0.00 84 1015.2
20260905113539 76 0 0.0 0.0 0.00 0.00 0.00 84 1015.2
20260905113117 76 0 0.0 0.0 0.00 0.00 0.00 84 1015.0
20260905112539 76 0 0.0 0.0 0.00 0.00 0.00 83 1015.0
20260905112041 76 0 0.0 0.0 0.00 0.00 0.00 83 1015.1
20260905111604 76 0 0.0 0.0 0.00 0.00 0.00 83 1015.0
20260905111040 76 0 0.0 0.0 0.00 0.00 0.00 83 1015.1
20260905110537 76 0 0.0 0.0 0.00 0.00 0.00 83 1015.1
20260905110059 76 0 0.0 0.0 0.00 0.00 0.00 83 1015.0
20260905105539 77 0 0.0 0.0 0.00 0.00 0.00 82 1015.0
20260905105040 77 0 0.0 0.0 0.00 0.00 0.00 82 1014.9
20260905104604 77 0 0.0 0.0 0.00 0.00 0.00 82 1014.9
20260905104041 77 0 0.0 0.0 0.00 0.00 0.00 81 1014.9
20260905103537 77 0 0.0 0.0 0.00 0.00 0.00 81 1015.0
20260905103108 77 0 0.0 0.0 0.00 0.00 0.00 81 1015.0
20260905102539 78 0 0.0 0.0 0.00 0.00 0.00 81 1015.0
20260905102039 78 0 0.0 0.0 0.00 0.00 0.00 80 1014.9
20260905101633 78 0 0.0 0.0 0.00 0.00 0.00 80 1014.9
20260905101043 78 0 0.0 0.0 0.00 0.00 0.00 80 1014.8
20260905100539 78 0 0.0 0.0 0.00 0.00 0.00 80 1014.7
20260905095536 78 0 0.0 0.0 0.00 0.00 0.00 79 1014.8
20260905095037 78 0 0.0 0.0 0.00 0.00 0.00 79 1014.9
20260905094559 78 0 0.0 0.0 0.00 0.00 0.00 79 1014.9
20260905094040 78 0 0.0 0.0 0.00 0.00 0.00 79 1014.9
20260905093539 78 0 0.0 0.0 0.00 0.00 0.00 79 1014.9
20260905093102 78 0 0.0 0.0 0.00 0.00 0.00 79 1014.9
20260905092540 79 0 0.0 0.0 0.00 0.00 0.00 79 1014.8
20260905092037 79 0 0.0 0.0 0.00 0.00 0.00 78 1014.8
20260905091628 79 0 0.0 0.0 0.00 0.00 0.00 78 1014.7
20260905091039 79 0 0.0 0.0 0.00 0.00 0.00 77 1014.8
20260905090539 79 0 0.0 0.0 0.00 0.00 0.00 77 1014.7
20260905085539 80 0 0.0 0.0 0.00 0.00 0.00 76 1014.5
20260905085039 80 0 0.0 0.0 0.00 0.00 0.00 76 1014.5
20260905084617 80 0 0.0 0.0 0.00 0.00 0.00 76 1014.3
20260905084039 80 0 0.0 1.0 0.00 0.00 0.00 76 1014.3
20260905083537 80 0 0.0 1.0 0.00 0.00 0.00 76 1014.3
20260905083059 79 0 0.0 0.0 0.00 0.00 0.00 76 1014.2
20260905082539 79 0 0.0 0.0 0.00 0.00 0.00 77 1014.2
20260905082039 79 0 0.0 0.0 0.00 0.00 0.00 77 1014.3
20260905081605 80 0 0.0 0.0 0.00 0.00 0.00 77 1014.4
20260905081038 80 0 0.0 0.0 0.00 0.00 0.00 77 1014.4
20260905080537 80 0 0.0 0.0 0.00 0.00 0.00 77 1014.3
20260905080109 80 0 0.0 0.0 0.00 0.00 0.00 77 1014.3
20260905075539 80 0 0.0 0.0 0.00 0.00 0.00 77 1014.4
20260905075038 80 0 0.0 0.0 0.00 0.00 0.00 77 1014.4
20260905074602 80 0 0.0 0.0 0.00 0.00 0.00 77 1014.5
20260905074036 80 0 0.0 0.0 0.00 0.00 0.00 77 1014.5
20260905073536 80 0 0.0 0.0 0.00 0.00 0.00 76 1014.5
20260905073108 80 0 0.0 0.0 0.00 0.00 0.00 76 1014.6
20260905072536 80 0 0.0 0.0 0.00 0.00 0.00 76 1014.8
20260905072037 80 0 0.0 0.0 0.00 0.00 0.00 76 1014.9
20260905071605 81 0 0.0 0.0 0.00 0.00 0.00 76 1014.9
20260905071040 81 0 0.0 0.0 0.00 0.00 0.00 76 1014.8
20260905070539 81 0 0.0 0.0 0.00 0.00 0.00 75 1015.0
20260905070118 81 0 0.0 0.0 0.00 0.00 0.00 75 1014.8
20260905065542 81 0 0.0 0.0 0.00 0.00 0.00 75 1015.0
20260905065036 81 0 0.0 0.0 0.00 0.00 0.00 75 1015.0
20260905064601 81 0 0.0 0.0 0.00 0.00 0.00 74 1015.0
20260905064037 82 0 0.0 0.0 0.00 0.00 0.00 74 1015.0
20260905063536 82 0 0.0 0.0 0.00 0.00 0.00 74 1015.0
20260905063059 82 0 0.0 0.0 0.00 0.00 0.00 74 1014.9
20260905062536 82 0 0.0 0.0 0.00 0.00 0.00 74 1014.9
20260905062039 82 0 0.0 0.0 0.00 0.00 0.00 73 1014.9
20260905061616 82 0 0.0 0.0 0.00 0.00 0.00 73 1015.0
20260905061041 82 0 0.0 0.0 0.00 0.00 0.00 73 1014.9
20260905060539 83 0 0.0 0.0 0.00 0.00 0.00 73 1015.0
20260905060104 83 0 0.0 0.0 0.00 0.00 0.00 72 1014.9
20260905055541 83 0 0.0 0.0 0.00 0.00 0.00 72 1015.0
20260905055039 83 0 0.0 0.0 0.00 0.00 0.00 72 1014.8
20260905054604 83 0 0.0 0.0 0.00 0.00 0.00 72 1014.8
20260905054039 83 0 0.0 0.0 0.00 0.00 0.00 71 1014.7
20260905053539 83 0 0.0 0.0 0.00 0.00 0.00 71 1014.7
20260905053112 83 0 0.0 0.0 0.00 0.00 0.00 71 1014.7
20260905052539 84 0 0.0 0.0 0.00 0.00 0.00 70 1014.7
20260905052036 84 0 0.0 0.0 0.00 0.00 0.00 70 1014.7
20260905051605 84 0 0.0 0.0 0.00 0.00 0.00 70 1014.7
20260905051039 84 0 0.0 0.0 0.00 0.00 0.00 69 1014.7
20260905050540 84 0 0.0 0.0 0.00 0.00 0.00 69 1014.6
20260905050108 85 0 0.0 0.0 0.00 0.00 0.00 69 1014.8
20260905045539 85 0 0.0 0.0 0.00 0.00 0.00 68 1014.9
20260905045043 85 0 0.0 0.0 0.00 0.00 0.00 68 1014.7
20260905044601 85 0 0.0 0.0 0.00 0.00 0.00 68 1014.7
20260905044042 85 0 0.0 0.0 0.00 0.00 0.00 67 1014.8
20260905043538 85 0 0.0 1.0 0.00 0.00 0.00 67 1014.8
20260905043059 86 190 0.0 1.0 0.00 0.00 0.00 67 1014.6
20260905042543 86 0 0.0 1.0 0.00 0.00 0.00 67 1014.7
20260905042039 86 193 0.0 1.0 0.00 0.00 0.00 66 1014.7
20260905041557 86 199 0.0 1.0 0.00 0.00 0.00 66 1014.6
20260905041039 86 188 0.0 1.0 0.00 0.00 0.00 66 1014.6
20260905040539 86 0 0.0 1.0 0.00 0.00 0.00 65 1014.7
20260905040107 86 188 0.0 1.0 0.00 0.00 0.00 65 1014.7
20260905035539 87 189 0.0 1.0 0.00 0.00 0.00 65 1014.8
20260905035037 87 0 0.0 1.0 0.00 0.00 0.00 65 1014.8
20260905034601 87 0 0.0 1.0 0.00 0.00 0.00 65 1014.8
20260905034041 87 179 0.0 1.0 0.00 0.00 0.00 65 1014.7
20260905033536 87 188 0.0 1.0 0.00 0.00 0.00 64 1014.9
20260905033101 87 188 0.0 1.0 0.00 0.00 0.00 64 1014.9
20260905032538 87 188 0.0 1.0 0.00 0.00 0.00 64 1014.8
20260905032039 87 178 0.0 2.0 0.00 0.00 0.00 64 1014.7
20260905031559 87 0 0.0 2.0 0.00 0.00 0.00 64 1014.7
20260905031036 87 185 0.0 2.0 0.00 0.00 0.00 63 1014.8
20260905030539 87 188 0.0 2.0 0.00 0.00 0.00 63 1014.8
20260905030107 87 160 0.0 1.0 0.00 0.00 0.00 63 1014.6
20260905025538 88 0 0.0 0.0 0.00 0.00 0.00 62 1014.6
20260905025039 88 197 0.0 0.0 0.00 0.00 0.00 62 1014.6
20260905024640 88 0 0.0 0.0 0.00 0.00 0.00 62 1014.4
20260905024040 88 0 0.0 0.0 0.00 0.00 0.00 61 1014.3
20260905023541 88 0 0.0 0.0 0.00 0.00 0.00 61 1014.4
20260905023059 88 0 0.0 0.0 0.00 0.00 0.00 60 1014.2
20260905022537 88 0 0.0 0.0 0.00 0.00 0.00 59 1014.2
20260905022042 88 0 0.0 0.0 0.00 0.00 0.00 59 1014.1
20260905021600 88 0 0.0 0.0 0.00 0.00 0.00 58 1013.9
20260905021040 88 170 0.0 1.0 0.00 0.00 0.00 58 1013.9
20260905020544 88 170 0.0 1.0 0.00 0.00 0.00 57 1013.9
20260905020106 89 0 0.0 0.0 0.00 0.00 0.00 55 1013.9
20260905015541 89 0 0.0 0.0 0.00 0.00 0.00 54 1013.7
20260905015042 89 0 0.0 1.0 0.00 0.00 0.00 54 1013.6
20260905014605 89 0 0.0 1.0 0.00 0.00 0.00 54 1013.4
20260905014041 89 0 0.0 1.0 0.00 0.00 0.00 53 1013.4
20260905013540 90 0 0.0 1.0 0.00 0.00 0.00 53 1013.5
20260905013103 90 116 0.0 1.0 0.00 0.00 0.00 52 1013.3
20260905012541 90 108 0.0 1.0 0.00 0.00 0.00 52 1013.3
20260905012041 90 0 0.0 1.0 0.00 0.00 0.00 51 1013.3
20260905011603 91 101 0.0 2.0 0.00 0.00 0.00 51 1013.4
20260905011041 91 109 0.0 2.0 0.00 0.00 0.00 51 1013.3
20260905010541 91 98 0.0 1.0 0.00 0.00 0.00 50 1013.2
20260905010103 91 0 0.0 1.0 0.00 0.00 0.00 50 1013.1
20260905005538 92 0 0.0 1.0 0.00 0.00 0.00 50 1013.1
20260905005040 92 107 0.0 2.0 0.00 0.00 0.00 50 1013.1
20260905004606 92 0 0.0 2.0 0.00 0.00 0.00 50 1013.0
20260905004042 92 0 0.0 1.0 0.00 0.00 0.00 50 1013.0
20260905003540 93 102 0.0 1.0 0.00 0.00 0.00 50 1012.8
20260905003103 93 202 0.0 1.0 0.00 0.00 0.00 50 1012.8
20260905002539 93 0 0.0 2.0 0.00 0.00 0.00 50 1012.9
20260905002039 93 198 0.0 2.0 0.00 0.00 0.00 51 1012.8
20260905001607 94 196 0.0 2.0 0.00 0.00 0.00 50 1012.8
20260905001042 94 125 0.0 5.0 0.00 0.00 0.00 50 1012.7
20260905000541 94 0 0.0 5.0 0.00 0.00 0.00 50 1012.8
20260905000108 94 0 1.0 5.0 0.00 0.00 0.00 49 1012.7
20260904235540 94 122 2.0 5.0 0.00 0.00 0.00 49 1012.7
20260904235039 95 89 1.0 2.0 0.00 0.00 0.00 49 1012.6
20260904234602 95 166 0.0 4.0 0.00 0.00 0.00 49 1012.7
20260904234041 95 87 1.0 5.0 0.00 0.00 0.00 50 1012.7
20260904233541 95 100 1.0 5.0 0.00 0.00 0.00 49 1012.8
20260904233104 95 103 1.0 4.0 0.00 0.00 0.00 50 1012.7
20260904232540 95 217 0.0 5.0 0.00 0.00 0.00 50 1012.7
20260904232043 95 93 1.0 5.0 0.00 0.00 0.00 50 1012.6
20260904231559 95 97 1.0 6.0 0.00 0.00 0.00 49 1012.6
20260904231039 95 101 2.0 8.0 0.00 0.00 0.00 49 1012.7
20260904230536 96 115 1.0 8.0 0.00 0.00 0.00 49 1012.7
20260904230058 96 77 0.0 5.0 0.00 0.00 0.00 49 1012.7
20260904225535 96 132 1.0 5.0 0.00 0.00 0.00 49 1012.5
20260904225037 96 198 0.0 5.0 0.00 0.00 0.00 50 1012.7
20260904224602 96 75 1.0 9.0 0.00 0.00 0.00 49 1012.6
20260904224039 96 98 2.0 9.0 0.00 0.00 0.00 49 1012.7
20260904223539 97 94 2.0 9.0 0.00 0.00 0.00 48 1012.6
20260904223109 97 65 3.0 9.0 0.00 0.00 0.00 48 1012.6
20260904222536 97 82 2.0 8.0 0.00 0.00 0.00 48 1012.5
20260904222037 97 242 3.0 8.0 0.00 0.00 0.00 48 1012.7
20260904221607 98 114 2.0 4.0 0.00 0.00 0.00 48 1012.7
20260904221036 98 162 0.0 5.0 0.00 0.00 0.00 47 1012.5
20260904220539 97 150 1.0 5.0 0.00 0.00 0.00 47 1012.7
20260904220104 97 0 1.0 5.0 0.00 0.00 0.00 47 1012.7
20260904215537 97 135 1.0 3.0 0.00 0.00 0.00 47 1012.8
20260904215036 97 174 1.0 10.0 0.00 0.00 0.00 47 1012.8
20260904214607 97 204 1.0 10.0 0.00 0.00 0.00 47 1012.9
20260904214038 98 139 1.0 5.0 0.00 0.00 0.00 47 1013.0
20260904213538 98 0 1.0 3.0 0.00 0.00 0.00 47 1013.1
20260904213103 98 169 2.0 7.0 0.00 0.00 0.00 48 1013.1
20260904212539 97 111 2.0 7.0 0.00 0.00 0.00 48 1013.0
20260904212035 97 91 2.0 6.0 0.00 0.00 0.00 48 1013.2
20260904211619 98 158 1.0 8.0 0.00 0.00 0.00 48 1013.2
20260904211039 97 117 2.0 8.0 0.00 0.00 0.00 47 1013.2
20260904210539 98 51 1.0 4.0 0.00 0.00 0.00 47 1013.3
20260904210101 98 162 1.0 3.0 0.00 0.00 0.00 47 1013.3
20260904205539 98 0 1.0 3.0 0.00 0.00 0.00 46 1013.3
20260904205038 98 0 0.0 4.0 0.00 0.00 0.00 46 1013.5
20260904204557 99 101 1.0 7.0 0.00 0.00 0.00 46 1013.4
20260904204038 99 178 1.0 7.0 0.00 0.00 0.00 46 1013.5
20260904203538 99 158 2.0 7.0 0.00 0.00 0.00 46 1013.6
20260904203104 98 0 1.0 6.0 0.00 0.00 0.00 46 1013.6